Other Public Products
Issued by NWS Grand Forks, ND

Home | Current Version | Previous Version | Text Only | Print | Product List | Glossary Off
Versions: 1 2 3 4 5 6 7 8 9 10 11 12 13 14 15 16 17 18 19 20 21 22 23 24 25 26 27 28 29 30 31 32 33 34 35 36 37 38 39 40 41 42 43 44 45 46 47 48 49 50

000
FPUS83 KFGF 132210
OPUFGF
PRAIRIE TO PINES WEATHER ROUNDUP
NATIONAL WEATHER SERVICE EASTERN NORTH DAKOTA/GRAND FORKS ND
400 PM CST WED DEC 13 2017

 **SATELLITE DATA USED TO AUGMENT SKY COVER AT AUTOMATED STATIONS**
 *****  WEATHER ACROSS EASTERN NORTH DAKOTA  *****

CITY           SKY/WX    TMP DP  RH WIND       PRES   REMARKS
GRAND FORKS    FLURRIES  22  18  85 N21       29.91R WCI   6
GRND FORKS AFB FLURRIES  23  16  74 N22G29    29.91R WCI   8
GRND FORKS NWS   N/A     21 N/A N/A N14         N/A  WCI   8
BUXTON         NOT AVBL
DEVILS LAKE    CLOUDY    29  25  85 N16       29.90R WCI  17
FARGO          CLOUDY    25  21  85 N20G26    29.89R WCI  11
WAHPETON ARPT  CLOUDY    27  21  80 N17G23    29.87R WCI  14
$$

 *****  WEATHER ACROSS CENTRAL AND WESTERN NORTH DAKOTA  *****

CITY           SKY/WX    TMP DP  RH WIND       PRES   REMARKS
JAMESTOWN      CLOUDY    33  29  85 NW14G23   29.88R WCI  23
BISMARCK       CLOUDY    36  26  67 NW20      29.97R
MINOT          CLOUDY    35  27  72 NW16      29.94R
MINOT AFB      CLOUDY    35  26  71 NW18G25   29.93R WCI  24
GARRISON         N/A     34  25  69 NW20      29.95R WCI  23
WILLISTON      FAIR      40  25  55 NW18      30.02R
DICKINSON      FAIR      37  23  56 W16       29.98R
HETTINGER      FAIR      39  20  46 NW21G28   30.01R
$$

 *****  OTHER OBSERVATIONS NORTHEAST NORTH DAKOTA  *****

CITY           SKY/WX    TMP DP  RH WIND       PRES   REMARKS
WALHALLA       FAIR      19  19 100 N18G24    29.94R WCI   4
LANGDON        CLOUDY    21  21 100 N20       29.89R WCI   6
CAVALIER       CLOUDY    19  14  79 N17G24    29.92R WCI   4
GRAFTON        CLOUDY    21  16  79 N18       29.94R WCI   6
CANDO          CLOUDY    30  27  86 N17G23    29.92R WCI  18
FORT TOTTEN      N/A     30  26  83 N7        29.95S WCI  23
ROLLA          CLOUDY    28  27  93 N13       29.89R WCI  18
RUGBY          CLOUDY    32  30  93 NW10      29.90R WCI  24
 ***** THE ABOVE OBSERVATIONS ARE NON NWS ARE NOT QUALITY
        CONTROLLED AND MAY MIS-REPORT RAIN FOR SNOW...
$$

 *****  OTHER OBSERVATIONS SOUTHEAST NORTH DAKOTA *****

CITY           SKY/WX    TMP DP  RH WIND       PRES   REMARKS
COOPERSTOWN    CLOUDY    28  25  86 N21G32    29.88R WCI  15
VALLEY CITY    CLOUDY    30  30 100 N20G25    29.88R WCI  18
OAKES            N/A     32  32 100 NW13      29.88R WCI  22
GWINNER          N/A     32  28  86 NW16      29.86R WCI  21
SHEYENNE NWR     N/A     28  27  96 NE12      29.95S WCI  18
BUFFALO        NOT AVBL
WYNDMERE       NOT AVBL
 ***** THE ABOVE OBSERVATIONS ARE NON NWS ARE NOT QUALITY
       CONTROLLED AND MAY MIS-REPORT RAIN FOR SNOW...
$$

  *****  WEATHER ACROSS NORTHERN MINNESOTA  *****

CITY           SKY/WX    TMP DP  RH WIND       PRES   REMARKS
FLAG ISLAND    FAIR      12   7  79 N7        29.86R WCI   2
WARROAD        FAIR      14   9  79 N3        29.88R
ROSEAU         CLOUDY    16  10  79 NW9       29.88R WCI   4
HALLOCK        CLOUDY    19  16  86 N17       29.91R WCI   4
THF RVR FALLS  FLURRIES  17  13  84 N12       29.88R WCI   4
HALSTAD        NOT AVBL
FOSSTON        FLURRIES  16  12  86 N13       29.85R WCI   2
BAUDETTE       FAIR      13   7  77 NW7       29.82R WCI   3
WASKISH        CLOUDY    18  12  79 N5        29.82R WCI  11
CROOKSTON      FLURRIES  21  18  86 N23       29.90R WCI   5
$$
  *****  WEATHER ACROSS CENTRAL AND WEST MINNESOTA  *****

CITY           SKY/WX    TMP DP  RH WIND       PRES   REMARKS
BEMIDJI        FLURRIES  15  11  83 NW12      29.81R WCI   2
PARK RAPIDS    CLOUDY    18  12  77 N9        29.79R WCI   7
WADENA         FLURRIES  19  16  86 N10       29.79R WCI   8
DETROIT LAKES  FLURRIES  21  19  93 N17       29.83R WCI   7
MOORHEAD       CLOUDY    23  19  86 N15       29.89R WCI  10
FERGUS FALLS   MIX PCPN  23  19  86 N13G29    29.87R WCI  11
ELBOW LAKE     CLOUDY    23  22  93 NW18      29.84R WCI   9
MORRIS MN      CLOUDY    27  23  86 N22G31    29.82R WCI  12
STAPLES        FLURRIES  18  14  86 N9        29.78R WCI   6
WHEATON        CLOUDY    27  23  86 N17G24    29.87R WCI  14
$$
  *****  WEATHER ELSEWHERE ACROSS MINNESOTA  *****

CITY           SKY/WX    TMP DP  RH WIND       PRES   REMARKS
DULUTH         LGT SNOW  21  17  84 N9        29.71R FOG     WCI  11
INTRNTL FALLS  MOCLDY    17  11  77 N3        29.80R
ELY            CLOUDY    16  12  86 NE6       29.75R WCI   7
CLOQUET        FLURRIES  21  18  86 N7        29.72R WCI  13
BRAINERD       LGT SNOW  19  13  77 N10       29.77R WCI   7
HIBBING        CLOUDY    19  12  74 N9        29.75R WCI   8
ALEXANDRIA     FLURRIES  23  17  78 N23G31    29.79R WCI   7
SAINT CLOUD    FLURRIES  21  15  78 N13       29.77R WCI   9
MINNEAPOLIS    CLOUDY    24  18  77 N16G24    29.72R WCI  11
$$

  *****  WEATHER ACROSS SOUTH DAKOTA  *****

CITY           SKY/WX    TMP DP  RH WIND       PRES   REMARKS
SIOUX FALLS    CLOUDY    37  30  75 NW21G26   29.83R
BROOKINGS      CLOUDY    32  28  85 N15       29.83R WCI  22
WATERTOWN      CLOUDY    31  29  92 N16       29.83R WCI  20
HURON          CLOUDY    37  27  67 NW23G30   29.90R
SISSETON         N/A     33  29  85 NW18      29.83R WCI  22
ABERDEEN       CLOUDY    36  27  69 NW21G31   29.90R
MITCHELL       CLOUDY    39  28  64 N26G32    29.91R
PIERRE         FAIR      43  27  53 N25G32    29.94R
MOBRIDGE       CLOUDY    38  27  64 NW22G30   29.93R
RAPID CITY     FAIR      43  24  47 N21G30    30.03R
$$

  *****  SOME WEATHER IN NEARBY STATES *****

CITY           SKY/WX    TMP DP  RH WIND       PRES   REMARKS
GLASGOW MT     MOCLDY    40  26  57 W7        30.09F
GREAT FALLS MT FAIR      38  29  70 SW10      30.24S
CHEYENNE WY    PTSUNNY   44  12  27 N13       30.01F
SCOTTSBLUFF NE FAIR      51  14  22 N18G28    30.02S
OMAHA NE       FAIR      47  29  49 N23G33    29.83R
DES MOINES IA  CLOUDY    38  27  64 NW26G40   29.74R
DAVENPORT IA   CLOUDY    36  26  67 NW25G40   29.55R
CHICAGO IL     CLOUDY    35  27  72 NW20G28   29.32R WCI  24
EAU CLAIRE WI  CLOUDY    21  13  71 N15G25    29.65R WCI   8
LA CROSSE WI   CLOUDY    26  18  71 NW22G31   29.60R WCI  12
$$

  *****  SOME NATIONAL WEATHER *****

CITY           SKY/WX    TMP DP  RH WIND       PRES   REMARKS
LA GUARDIA NY  FAIR      31   6  35 W22G30    29.63R WCI  18
RALEIGH NC     FAIR      38  14  37 SW9       29.84F
ATLANTA GA     FAIR      48  13  24 SW9G23    29.90F
NEW ORLEANS LA PTSUNNY   61  32  33 SW8       30.05F
OKLAHOMA CITY  PTSUNNY   65  21  18 N6        29.89F
ALBUQUERQUE NM FAIR      54   5  14 CALM      30.06F
SALT LAKE CITY CLOUDY    28  25  88 CALM      30.25F FOG
LOS ANGELES CA FAIR      72  34  24 W9        29.94F
BOISE ID       CLOUDY    25  21  85 NW8       30.40R WCI  16
SEATTLE WA     PTSUNNY   48  37  65 N14       30.37F
$$

*** WEATHER ACROSS MANITOBA...SASKATCHEWAN AND ONTARIO ***
                ***ONTARIO***

CITY           SKY/WX    TMP DP  RH WIND       PRES   REMARKS
GERALDTON      FLURRIES  -4  -9  77 N10       29.81R WCI -21
THUNDER BAY    PTCLDY    10   1  67 N5        29.83R WCI   2
SIOUX LOOKOUT  PTCLDY     5   1  85 VRB2      29.83R
TORONTO        MOCLDY    16   5  62 NE9       29.61F WCI   4
BIG TROUT LK   CLEAR    -18 -24  76 CALM      29.93R
PICKLE LAKE    PTCLDY    -4  -8  84 W6        29.85R WCI -16
DRYDEN         CLEAR      9   5  85 N5        29.81R WCI   0
KENORA         PTCLDY    10   7  85 NE5       29.83R WCI   2
$$
                *** MANITOBA***

CITY           SKY/WX    TMP DP  RH WIND       PRES   REMARKS
BRANDON        PTCLDY    25  19  80 N8        29.93R WCI  16
DAUPHIN        CLOUDY    18  16  93 VRB2      29.96R
ISLAND LAKE    NOT AVBL
PILOT MOUND      N/A     19  16  86 N14G20      N/A  WCI   6
THE PAS        CLOUDY    18  12  79 N9        29.95R WCI   6
THOMPSON       CLOUDY     0  -6  78 CALM      29.93R
WINNIPEG       FLURRIES  18  12  79 N8        29.94R WCI   7
LYNN LAKE      FLURRIES   7   5  92 NW7       29.93R WCI  -5
CHURCHILL      CLOUDY    -9 -13  84 W6        29.99R WCI -23
GILLAM         CLOUDY    -6 -11  77 CALM      29.97R
$$
                ***SASKATCHEWAN***

CITY           SKY/WX    TMP DP  RH WIND       PRES   REMARKS
ESTEVAN        MOCLDY    34  27  75 NW8       29.98S
KINDERSLEY     PTCLDY    36  28  75 W12       30.08R
LLOYDMINSTER   MOCLDY    36  28  75 NW15G23   30.06R
PRINCE ALBERT  PTCLDY    32  25  74 W3        29.94F
REGINA         PTCLDY    36  30  80 W13       29.98S
YORKTON        CLOUDY    30  27  86 CALM      29.93R



USA.gov is the U.S. government's official web portal to all federal, state and local government web resources and services.